Location: Bondula
(6.3703°N, 10.6756°W)
Time: 00:17:22
(UTC+00:00)

Cosmos 44 - Pass Details

Date: 22 October 2019
Orbit: 592 x 770 km, 65.1° (Epoch: 11 November)

Event Time Altitude Azimuth Distance (km) Brightness Sun altitude
Exits shadow 05:25:11 - 348° (NNW) 2,794 6.2 -16.4°
Reaches altitude 10° 05:27:25 10° 353° (N) 1,920 5.4 -15.8°
Maximum altitude 05:31:34 48° 68° (ENE) 794 4.0 -14.8°
Drops below altitude 10° 05:35:51 10° 142° (SE) 1,980 6.4 -13.8°
Sets 05:38:13 0° 148° (SSE) 2,912 7.2 -13.2°
